Location: Bennemühlen
(52.5740°N, 9.7135°E)
Time: 16:26:01
(UTC+00:00)

SR - Pass Details

Date: 23 February 2026
Orbit: 572 x 848 km, 66.7° (Epoch: 8 March)

Event Time Altitude Azimuth Distance (km) Brightness Sun altitude
Exits shadow 05:07:56 15° 292° (WNW) 1,662 ? -11.8°
Maximum altitude 05:10:21 23° 334° (NNW) 1,358 ? -11.5°
Drops below altitude 10° 05:14:05 10° 27° (NNE) 2,090 ? -10.9°
Sets 05:16:56 0° 42° (NE) 3,061 ? -10.5°
